Location: Asheville, NC
(35.6000°N, 82.5500°W)
Time: 20:42:25
(UTC-04:00)

STRAND 1 - Pass Details

Date: 09 March 2018
Orbit: 769 x 781 km, 98.5° (Epoch: 20 June)

Event Time Altitude Azimuth Distance (km) Brightness Sun altitude
Rises 20:16:07 0° 9° (N) 3,263 ? -21.8°
Reaches altitude 10° 20:18:27 10° 7° (N) 2,330 ? -22.2°
Maximum altitude 20:23:33 68° 286° (WNW) 833 ? -23.2°
Drops below altitude 10° 20:28:36 10° 204° (SSW) 2,308 ? -24.2°
Sets 20:30:54 0° 201° (SSW) 3,229 ? -24.7°
